TimeMDT,TemperatureF,Dew PointF,Humidity,Sea Level PressureIn,VisibilityMPH,Wind Direction,Wind SpeedMPH,Gust SpeedMPH,PrecipitationIn,Events,Conditions,WindDirDegrees,DateUTC
12:51 AM,57.9,48.9,72,30.19,10.0,ENE,3.5,-,N/A,,Clear,60,2013-06-28 06:51:00
1:51 AM,54.0,46.9,77,30.19,10.0,Calm,Calm,-,N/A,,Clear,0,2013-06-28 07:51:00
2:51 AM,52.0,46.0,80,30.20,10.0,Calm,Calm,-,N/A,,Clear,0,2013-06-28 08:51:00
3:51 AM,51.1,45.0,80,30.20,10.0,Calm,Calm,-,N/A,,Clear,0,2013-06-28 09:51:00
4:51 AM,50.0,44.1,80,30.19,10.0,Calm,Calm,-,N/A,,Clear,0,2013-06-28 10:51:00
5:51 AM,48.0,43.0,83,30.20,10.0,Calm,Calm,-,N/A,,Clear,0,2013-06-28 11:51:00
6:51 AM,50.0,44.1,80,30.21,10.0,Calm,Calm,-,N/A,,Clear,0,2013-06-28 12:51:00
7:51 AM,54.0,48.0,80,30.20,10.0,Calm,Calm,-,N/A,,Clear,0,2013-06-28 13:51:00
8:51 AM,62.1,48.0,60,30.21,10.0,Calm,Calm,-,N/A,,Clear,0,2013-06-28 14:51:00
9:51 AM,66.0,52.0,60,30.21,10.0,Calm,Calm,-,N/A,,Clear,0,2013-06-28 15:51:00
10:51 AM,71.1,53.1,53,30.19,10.0,Calm,Calm,-,N/A,,Clear,0,2013-06-28 16:51:00
11:51 AM,77.0,51.1,40,30.18,10.0,South,4.6,-,N/A,,Clear,170,2013-06-28 17:51:00
12:51 PM,82.0,46.0,28,30.17,10.0,Calm,Calm,-,N/A,,Clear,0,2013-06-28 18:51:00
1:51 PM,84.0,39.0,20,30.17,10.0,WSW,4.6,-,N/A,,Clear,240,2013-06-28 19:51:00
2:51 PM,84.0,42.1,23,30.16,10.0,SSE,3.5,-,N/A,,Clear,150,2013-06-28 20:51:00
3:51 PM,84.9,42.1,22,30.14,10.0,Variable,4.6,-,N/A,,Clear,0,2013-06-28 21:51:00
4:51 PM,86.0,42.1,21,30.11,10.0,South,3.5,-,N/A,,Clear,170,2013-06-28 22:51:00
5:51 PM,88.0,42.1,20,30.10,10.0,Variable,3.5,-,N/A,,Clear,0,2013-06-28 23:51:00
6:51 PM,86.0,42.1,21,30.07,10.0,SW,3.5,-,N/A,,Clear,220,2013-06-29 00:51:00
7:51 PM,86.0,45.0,24,30.05,10.0,Calm,Calm,-,N/A,,Clear,0,2013-06-29 01:51:00
8:51 PM,82.0,44.1,26,30.04,10.0,Calm,Calm,-,N/A,,Clear,0,2013-06-29 02:51:00
9:51 PM,71.1,54.0,55,30.05,10.0,Calm,Calm,-,N/A,,Clear,0,2013-06-29 03:51:00
10:51 PM,68.0,53.1,59,30.06,10.0,SW,3.5,-,N/A,,Clear,230,2013-06-29 04:51:00
11:51 PM,64.9,54.0,68,30.05,10.0,Calm,Calm,-,N/A,,Clear,0,2013-06-29 05:51:00